TimeEST,TemperatureF,Dew PointF,Humidity,Sea Level PressureIn,VisibilityMPH,Wind Direction,Wind SpeedMPH,Gust SpeedMPH,PrecipitationIn,Events,Conditions,WindDirDegrees,DateUTC
12:54 AM,28.9,21.0,72,30.06,10.0,North,16.1,25.3,N/A,,Overcast,350,2012-12-30 05:54:00
1:27 AM,26.6,21.2,80,30.04,5.0,NNW,18.4,29.9,0.00,Snow,Light Snow,340,2012-12-30 06:27:00
1:54 AM,28.0,21.0,75,30.08,9.0,NNW,21.9,32.2,0.00,,Overcast,340,2012-12-30 06:54:00
2:43 AM,28.4,19.4,69,30.08,10.0,NNW,26.5,38.0,0.00,,Scattered Clouds,340,2012-12-30 07:43:00
2:54 AM,28.0,19.0,69,30.12,10.0,NNW,24.2,33.4,0.00,,Partly Cloudy,340,2012-12-30 07:54:00
3:41 AM,28.4,19.4,69,30.12,10.0,North,19.6,28.8,N/A,,Mostly Cloudy,350,2012-12-30 08:41:00
3:54 AM,27.0,19.0,72,30.16,10.0,NNW,21.9,32.2,N/A,,Mostly Cloudy,340,2012-12-30 08:54:00
4:54 AM,27.0,19.0,72,30.16,10.0,North,23.0,36.8,N/A,,Mostly Cloudy,350,2012-12-30 09:54:00
5:13 AM,26.6,19.4,74,30.12,10.0,North,26.5,35.7,N/A,,Scattered Clouds,350,2012-12-30 10:13:00
5:54 AM,27.0,19.9,75,30.18,10.0,NNW,27.6,41.4,N/A,,Clear,340,2012-12-30 10:54:00
6:54 AM,26.6,19.4,74,30.18,10.0,NNW,28.8,40.3,N/A,,Clear,340,2012-12-30 11:54:00
7:54 AM,26.1,18.0,71,30.26,10.0,NNW,28.8,44.9,N/A,,Clear,340,2012-12-30 12:54:00
8:54 AM,27.0,18.0,69,30.31,10.0,North,16.1,31.1,N/A,,Clear,360,2012-12-30 13:54:00
9:54 AM,28.0,19.0,69,30.35,10.0,North,20.7,31.1,N/A,,Clear,350,2012-12-30 14:54:00
10:54 AM,30.9,19.0,61,30.37,10.0,North,16.1,24.2,N/A,,Clear,350,2012-12-30 15:54:00
11:54 AM,34.0,19.0,54,30.37,10.0,North,13.8,20.7,N/A,,Clear,350,2012-12-30 16:54:00
12:54 PM,36.0,18.0,48,30.37,10.0,NNW,17.3,24.2,N/A,,Clear,340,2012-12-30 17:54:00
1:54 PM,37.9,16.0,41,30.36,10.0,North,13.8,25.3,N/A,,Clear,350,2012-12-30 18:54:00
2:54 PM,37.9,15.1,39,30.34,10.0,North,12.7,-,N/A,,Clear,360,2012-12-30 19:54:00
3:54 PM,37.9,15.1,39,30.36,10.0,NNW,10.4,-,N/A,,Clear,340,2012-12-30 20:54:00
4:54 PM,37.0,16.0,42,30.36,10.0,NNW,10.4,-,N/A,,Clear,340,2012-12-30 21:54:00
5:54 PM,35.1,15.1,44,30.38,10.0,North,9.2,-,N/A,,Clear,350,2012-12-30 22:54:00
6:54 PM,32.0,19.0,59,30.41,10.0,NNW,10.4,-,N/A,,Clear,340,2012-12-30 23:54:00
7:54 PM,30.0,19.9,66,30.44,10.0,WNW,6.9,-,N/A,,Clear,300,2012-12-31 00:54:00
8:54 PM,30.0,19.9,66,30.41,10.0,NNW,10.4,-,N/A,,Clear,340,2012-12-31 01:54:00
9:54 PM,28.0,19.9,72,30.40,10.0,NNW,5.8,-,N/A,,Clear,340,2012-12-31 02:54:00
10:54 PM,27.0,19.9,75,30.40,10.0,WSW,4.6,-,N/A,,Clear,240,2012-12-31 03:54:00
11:54 PM,28.0,21.9,78,30.39,10.0,Calm,Calm,-,N/A,,Clear,0,2012-12-31 04:54:00